Location: Grossmotten
(48.5500°N, 15.3833°E)
Time: 03:29:59
(UTC+00:00)

CZ-4C R/B - Pass Details

Date: 15 November 2019
Orbit: 650 x 1352 km, 63.4° (Epoch: 09 December)

Event Time Altitude Azimuth Distance (km) Brightness Sun altitude
Exits shadow 02:27:28 29° 23° (NNE) 1,624 3.9 -35.9°
Drops below altitude 10° 02:30:41 10° 37° (NE) 2,731 5.3 -35.4°
Sets 02:33:37 0° 43° (NE) 3,802 6.3 -34.9°
